Theta_e
305 305 305 305 305 305 305 305 305 305 305 305 306 305 306 309 310 311 317 320 319 317 317 320 321 322 317 317 320 320 327 328 335 336 336 335 332 333 335 335 335 331 333 335 337 338 336 334 335 338 332 329 329 330
303 304 304 304 305 305 305 304 304 304 304 305 305 305 305 309 310 311 313 314 317 317 318 320 321 322 321 318 315 315 322 323 328 330 330 332 333 327 326 329 325 330 326 330 332 332 331 332 333 329 327 329 332 332
302 302 303 303 303 304 304 303 303 303 304 304 305 305 305 307 311 311 311 314 316 315 316 314 316 319 322 322 321 319 317 321 320 322 325 326 328 322 324 324 322 323 329 335 335 336 336 333 332 332 332 332 332 331
302 302 302 303 303 303 304 302 303 303 303 304 305 305 305 307 311 312 311 313 318 313 318 314 318 316 318 319 321 319 317 316 316 316 321 323 326 318 320 319 320 320 332 333 335 334 332 332 332 332 333 332 332 331
302 302 303 303 303 303 303 303 303 303 304 304 305 305 305 308 310 312 318 316 316 316 316 314 312 316 321 320 318 319 317 315 316 319 319 322 318 319 317 320 323 325 331 335 335 332 329 329 329 331 333 332 330 329
299 300 302 303 303 303 303 304 304 303 304 304 305 306 306 307 309 316 320 317 317 317 310 309 308 317 322 319 316 315 313 314 315 317 318 316 315 319 324 324 324 327 325 325 331 326 328 330 331 330 329 328 327 327
299 299 300 302 303 303 303 304 304 303 304 305 306 306 307 310 314 312 322 319 317 316 314 316 316 317 319 318 315 316 315 315 317 315 317 317 319 317 322 330 329 330 327 327 327 327 328 327 328 326 327 326 325 324
300 300 299 300 300 301 302 303 303 303 304 305 306 307 313 316 314 315 316 316 317 318 317 321 320 317 319 320 321 313 317 315 315 316 318 318 322 319 325 323 330 327 326 326 325 324 324 322 323 323 324 325 326 326
299 300 300 300 300 300 300 301 303 303 304 306 307 312 316 317 321 319 315 313 315 315 319 320 320 321 316 317 318 320 315 320 315 319 318 324 331 327 326 329 328 326 328 326 324 324 325 326 326 326 326 327 327 327
300 300 301 300 300 300 300 300 302 304 305 306 307 313 322 316 311 314 317 314 314 314 314 317 319 326 318 319 320 324 319 321 325 323 325 332 334 329 327 326 326 325 324 324 327 327 327 327 327 327 327 325 326 326
300 300 301 301 300 299 300 300 303 304 306 306 302 304 309 312 316 314 315 320 320 323 316 316 316 319 314 323 321 321 324 322 327 324 329 335 335 331 326 324 323 322 323 323 323 323 324 325 325 326 327 327 327 328
299 300 301 301 300 299 302 305 305 304 304 304 304 305 306 312 315 322 321 320 326 331 325 324 321 313 311 321 325 324 327 323 330 324 337 340 332 327 324 324 325 325 327 327 326 326 325 325 325 325 327 327 328 329
299 299 300 300 299 302 305 305 305 305 305 306 307 312 313 313 316 323 325 324 324 321 323 324 323 314 316 320 323 322 326 326 322 331 337 335 329 324 323 326 326 326 327 327 327 327 327 328 328 327 327 328 328 328
301 299 300 300 302 304 305 305 306 305 305 308 315 312 316 321 320 320 321 319 317 318 318 322 322 323 319 322 322 328 324 324 329 340 339 332 326 323 324 325 327 327 326 326 325 326 325 325 325 326 327 328 327 325
301 300 300 303 305 304 304 305 305 306 305 309 313 314 318 316 315 315 314 314 315 317 322 323 321 321 322 325 322 324 329 330 330 328 330 326 321 324 325 325 325 324 324 324 324 322 322 323 325 326 326 326 325 325
301 300 302 302 302 303 304 305 306 306 306 309 309 315 314 313 313 312 312 313 312 318 321 321 325 327 328 324 328 329 329 330 329 331 326 323 325 325 325 326 325 324 323 322 321 320 321 322 322 323 322 322 321 320
302 301 300 300 302 304 305 306 307 307 308 313 313 310 311 311 312 312 310 311 311 320 326 328 329 330 323 324 327 323 325 324 327 327 325 326 326 324 323 322 324 323 321 319 318 318 318 318 319 319 316 317 317 317
302 301 301 300 301 304 306 307 306 311 313 311 312 311 308 308 310 310 310 310 315 320 323 328 328 330 327 328 325 321 323 324 325 326 324 323 323 322 322 322 324 322 320 319 318 317 316 314 314 314 315 315 314 313
301 301 301 300 301 304 306 309 307 312 311 310 308 306 307 308 307 308 308 309 311 316 322 324 328 328 328 325 321 324 325 325 327 323 322 322 323 322 323 324 323 321 320 317 316 315 314 314 315 315 315 315 315 315
301 300 300 301 302 305 308 308 310 310 311 308 306 308 307 309 309 310 310 311 311 320 324 327 325 324 323 324 323 325 326 325 328 328 325 322 323 324 322 323 323 322 319 318 317 316 314 314 315 315 315 315 314 315
300 303 305 305 305 305 304 307 309 309 309 309 308 308 310 308 310 311 312 309 312 315 323 323 323 322 321 321 322 324 324 326 329 327 327 324 322 324 323 323 323 321 319 317 316 316 316 315 316 316 314 314 315 315
302 304 306 305 305 307 308 307 303 303 305 306 307 307 309 309 311 311 309 313 312 312 313 316 319 321 321 325 326 326 325 324 324 322 324 325 323 322 321 322 320 319 318 318 318 317 317 317 315 314 314 311 310 311
301 305 306 307 308 306 305 304 307 307 310 309 308 312 311 311 311 309 313 311 311 308 309 311 313 319 322 324 325 325 326 327 325 322 322 324 325 325 324 323 323 321 319 319 320 318 317 316 315 314 314 313 309 310
304 305 308 308 308 305 309 309 309 309 309 311 311 314 314 313 310 313 316 313 311 313 315 315 316 320 321 323 323 322 325 326 325 323 323 322 321 322 324 324 325 324 323 323 321 319 316 314 315 314 313 312 310 310
305 304 303 305 308 311 313 314 315 314 314 314 316 314 313 311 315 316 316 318 320 319 319 318 316 318 321 322 321 324 326 325 323 323 323 324 322 319 319 320 321 322 322 318 315 315 315 315 315 315 314 312 310 309
306 307 306 309 311 310 313 316 316 316 316 314 316 316 312 313 317 317 319 322 321 321 321 320 318 318 317 317 319 320 324 326 325 322 323 324 320 318 316 317 316 314 316 316 314 313 312 311 310 311 310 310 309 307
307 308 308 306 309 311 314 313 315 315 316 319 318 316 315 318 319 318 317 319 320 319 320 319 318 316 318 318 320 322 324 323 323 322 323 323 319 318 318 316 316 313 312 312 311 311 311 312 313 312 310 307 307 307
306 306 310 310 311 311 315 314 317 316 316 316 317 318 320 321 320 317 317 317 317 318 320 318 317 319 320 320 318 319 320 322 320 318 319 319 317 316 315 313 312 311 311 314 314 313 312 311 310 308 308 307 307 306
308 308 309 311 312 312 314 316 315 315 312 314 317 319 318 317 315 315 316 317 319 318 316 314 314 318 318 318 319 318 318 318 319 318 317 316 316 315 313 313 313 314 312 312 311 310 309 309 308 308 307 307 305 305
309 307 311 312 312 313 313 312 314 314 314 316 315 316 316 315 315 317 318 317 317 316 313 312 313 313 313 315 315 318 319 320 319 317 317 317 316 316 315 315 314 313 313 314 314 309 307 307 307 306 306 305 304 303
308 306 308 308 310 308 311 312 313 314 316 317 316 317 316 316 316 314 315 312 311 314 313 311 307 308 310 310 311 311 309 314 316 316 317 317 317 316 315 314 313 313 313 314 313 307 306 305 305 304 304 303 303 302
305 308 309 311 312 311 311 313 314 316 317 316 316 317 317 318 318 314 313 309 306 306 306 305 304 302 303 303 304 306 307 308 311 314 315 315 315 315 315 315 314 314 312 309 308 306 305 304 304 303 303 303 302 301
307 306 307 308 311 314 313 315 315 318 316 316 317 318 319 319 318 315 311 309 306 304 303 302 301 302 303 304 305 307 308 308 309 309 310 311 311 313 314 314 310 308 307 306 305 304 304 304 303 303 302 301 301 300
Wind_Speed
16 17 18 19 21 23 24 26 27 28 28 28 27 26 26 24 21 18 2 1 2 1 6 4 3 2 1 2 2 4 1 3 3 4 4 2 1 1 2 1 3 3 4 2 3 3 3 3 2 6 4 3 5 4
17 18 19 21 23 23 25 26 27 28 29 28 26 25 24 22 20 16 3 4 9 3 5 6 18 20 10 11 3 2 3 3 4 4 0 2 2 2 0 2 1 2 4 4 4 4 3 3 2 2 3 5 4 6
17 18 19 20 22 23 25 26 27 28 29 28 26 24 23 20 17 15 7 6 2 2 5 4 6 4 8 18 19 3 2 3 1 2 4 2 4 4 4 4 2 3 2 4 3 2 1 1 3 3 2 5 5 5
17 18 19 20 21 23 25 29 28 29 29 29 26 24 22 19 15 16 7 4 1 2 1 6 8 10 4 9 16 23 3 4 5 2 2 2 2 3 3 2 3 3 3 4 1 3 1 2 2 5 4 5 7 5
18 19 19 21 22 23 25 28 29 31 31 30 27 25 22 18 16 14 7 4 2 2 3 5 16 9 10 10 16 21 7 3 2 2 2 3 2 3 1 2 2 5 7 5 6 9 5 5 6 6 7 5 6 7
19 18 19 20 22 24 26 28 30 32 32 31 28 25 22 18 13 3 2 3 6 3 2 4 6 5 8 3 10 6 3 3 3 3 2 2 2 2 3 4 4 3 3 5 5 6 4 7 6 4 8 7 5 6
21 21 19 19 22 24 27 29 31 32 33 31 28 25 21 16 8 3 2 1 8 8 2 5 6 4 4 3 3 2 3 2 3 2 1 2 1 3 3 4 4 1 2 4 7 10 6 3 5 6 8 8 9 6
20 23 22 22 23 22 25 29 30 32 33 30 27 21 13 5 4 3 4 3 4 3 2 1 5 5 4 0 2 2 2 3 4 2 1 2 1 2 2 4 2 5 8 7 5 6 7 8 7 6 7 6 6 4
19 21 23 24 23 24 25 28 31 33 33 28 20 7 2 1 2 2 6 8 3 1 1 2 2 4 4 2 1 3 2 1 1 1 2 3 1 3 4 4 7 7 5 9 7 10 10 11 8 6 5 4 3 1
18 19 21 25 24 24 26 28 31 35 29 18 7 1 1 1 12 3 2 2 3 2 2 3 1 3 2 2 1 2 2 2 2 3 2 3 3 3 4 5 4 5 12 10 13 6 6 6 5 4 3 2 2 1
17 19 20 23 25 24 26 27 28 31 12 8 7 3 10 10 0 2 0 1 1 2 3 4 5 2 1 2 4 1 3 1 2 4 4 0 3 2 2 5 5 7 7 7 8 6 6 7 6 4 2 2 1 2
15 18 20 23 24 23 22 22 20 16 12 12 11 10 7 4 3 1 2 2 3 4 3 3 4 5 3 2 2 1 3 2 4 3 3 2 3 3 5 6 6 7 10 10 12 9 9 8 6 4 3 1 0 1
17 18 19 21 22 18 15 19 18 16 15 1 1 2 3 2 2 4 5 2 2 2 3 1 3 3 1 1 2 2 3 5 3 2 3 4 3 4 6 6 7 7 12 10 8 10 9 7 4 2 0 1 1 4
17 17 18 21 13 11 15 19 19 16 4 2 3 4 4 3 4 4 3 3 4 3 4 2 3 3 1 2 2 4 2 3 3 2 5 3 6 8 6 5 9 7 7 7 7 8 7 6 4 3 2 1 7 7
16 17 20 8 10 13 16 18 18 8 2 1 0 4 4 3 3 3 2 3 3 2 3 3 1 2 1 3 0 3 2 2 3 4 3 3 6 7 7 5 7 7 6 6 7 6 7 8 7 7 7 9 9 9
15 15 5 12 15 16 17 18 7 2 1 2 3 3 3 1 3 3 2 3 2 3 2 1 2 2 3 3 3 4 6 4 3 3 3 8 10 7 7 6 6 8 9 9 9 8 9 9 9 8 7 7 7 8
11 5 9 16 17 19 16 3 1 2 2 3 3 3 3 4 4 3 2 4 3 3 1 2 3 2 2 3 2 3 5 4 4 3 7 8 11 8 6 6 8 11 11 11 9 8 8 9 9 9 6 5 5 5
8 13 12 13 17 16 3 3 2 2 4 4 2 4 2 3 3 4 4 2 3 3 0 2 2 1 3 5 3 4 2 1 2 6 6 5 6 7 11 7 12 14 13 11 10 11 10 10 10 8 8 7 10 11
14 14 13 11 10 6 3 2 3 3 4 2 3 2 3 4 4 4 4 4 5 3 1 1 1 2 2 2 3 2 3 3 5 4 3 4 11 11 12 13 14 14 14 12 12 11 11 11 10 10 9 8 8 5
11 13 12 7 4 2 3 3 2 3 3 3 2 3 2 3 4 4 4 3 2 1 1 2 4 2 4 4 1 2 3 3 11 7 3 3 9 14 14 15 13 16 13 10 8 10 10 7 6 6 6 7 8 8
6 3 3 3 4 5 2 2 3 2 3 2 2 2 4 2 3 3 3 0 1 2 2 3 3 4 4 2 6 5 5 4 9 6 6 4 7 11 11 14 17 19 12 11 10 9 9 9 6 5 4 6 9 10
3 7 2 4 3 3 3 5 3 3 2 3 3 1 3 3 3 4 2 0 3 3 3 3 2 2 3 2 3 11 9 10 7 9 12 14 4 4 5 13 14 9 13 15 16 13 13 9 7 6 6 5 3 4
7 2 2 3 2 1 5 1 2 3 2 3 3 2 3 3 3 1 2 3 3 2 2 2 3 2 2 1 1 4 10 15 3 8 7 8 8 9 12 17 19 14 10 15 15 13 11 9 8 6 5 8 6 5
3 2 2 1 3 3 2 3 3 3 2 2 2 4 3 3 1 1 2 2 3 3 4 6 3 2 3 2 1 3 6 11 11 9 6 10 4 8 14 16 21 23 20 17 15 13 11 11 9 7 4 5 7 7
1 2 2 3 2 3 3 3 3 3 3 3 2 4 3 1 1 1 0 3 4 5 6 7 4 3 3 3 2 6 13 14 7 4 6 8 6 5 5 6 9 13 14 9 10 8 6 7 8 7 6 6 9 10
2 3 4 2 1 3 3 3 2 3 3 3 2 4 3 1 1 1 0 2 2 2 3 5 6 4 2 3 3 3 8 11 11 4 6 10 12 11 7 6 5 7 12 15 21 17 16 12 7 8 6 5 8 17
2 2 2 3 2 3 3 3 3 3 4 3 2 3 3 2 2 1 2 1 1 6 10 10 6 2 2 4 2 6 7 9 5 7 8 9 10 15 21 17 12 13 16 20 20 20 16 7 6 4 4 10 15 14
4 3 4 2 3 3 3 3 2 3 2 1 1 2 4 3 1 2 2 6 13 16 6 5 6 3 3 6 8 13 22 21 17 18 20 18 15 17 23 27 25 23 21 13 10 13 13 10 7 12 16 16 12 8
3 2 2 4 3 3 3 2 2 2 2 1 2 2 2 2 1 2 6 13 6 4 4 5 7 10 14 15 16 19 13 22 16 9 12 7 6 11 24 26 22 17 17 15 9 6 5 8 12 15 14 11 7 4
3 2 2 3 2 3 3 3 2 3 1 2 2 2 2 2 6 10 9 14 13 10 10 10 9 14 9 8 10 10 7 8 7 13 8 8 9 23 19 18 20 20 15 12 6 11 13 13 12 10 8 6 6 6
2 2 2 2 3 3 3 1 2 3 1 2 2 1 2 2 5 23 22 21 17 17 15 13 17 19 15 12 8 6 5 8 11 13 15 18 21 20 20 18 15 12 14 6 8 19 17 15 14 14 13 14 13 11
2 2 1 3 3 4 3 1 1 2 2 3 2 2 2 2 4 5 13 13 10 6 9 13 13 11 11 12 14 16 15 13 13 15 17 19 19 18 19 17 13 9 11 17 22 18 17 17 18 17 15 13 11 9
3 2 2 2 3 3 3 4 1 2 2 2 1 2 2 3 5 2 9 10 8 10 16 18 19 19 20 23 23 21 18 18 16 15 13 14 14 16 17 16 18 22 20 18 19 20 19 17 17 14 12 9 7 6
Wind_Direction
341 342 340 339 340 340 342 345 348 350 352 353 355 358 3 1 360 359 358 56 16 250 278 206 251 222 112 109 135 268 307 334 31 93 151 323 323 330 12 210 156 173 121 129 95 98 253 19 65 162 200 102 115 103
324 325 330 331 331 334 335 340 344 346 347 348 350 353 355 357 356 359 317 339 307 194 252 275 265 259 246 219 164 274 195 213 191 88 357 108 185 95 339 227 22 64 168 176 163 211 258 268 264 56 112 114 113 117
322 324 325 328 330 331 335 339 341 342 343 344 346 348 349 349 348 352 314 319 314 356 302 355 262 267 254 235 220 177 263 190 139 200 150 156 85 103 199 246 104 38 125 98 102 270 5 69 89 82 98 122 138 142
330 329 328 327 328 329 332 337 337 338 339 340 341 342 342 341 339 334 305 281 293 104 247 281 318 289 261 232 223 221 151 101 107 85 109 139 161 183 210 192 133 188 101 127 4 281 50 277 134 141 118 99 93 71
329 329 330 329 328 328 330 334 334 334 334 335 335 336 336 332 325 325 299 196 282 154 230 276 305 287 307 250 211 206 166 118 93 59 89 220 160 127 14 70 262 185 169 165 215 192 146 187 163 139 126 119 128 122
319 321 326 328 329 330 330 330 331 332 331 330 330 329 329 321 321 323 10 134 99 14 65 324 302 302 329 129 128 105 131 110 89 134 212 265 278 116 135 197 256 215 202 180 181 151 145 130 110 92 115 122 124 122
337 332 325 324 326 329 330 330 329 329 328 327 325 325 318 308 291 178 165 318 270 300 83 315 319 287 310 71 51 82 31 93 115 129 204 162 220 90 119 189 253 159 158 143 126 119 70 59 127 99 101 98 95 80
325 334 334 329 323 320 324 326 330 329 328 326 322 321 317 323 150 159 128 36 44 102 81 281 275 337 2 217 123 359 82 30 21 151 110 156 65 83 226 241 129 102 98 78 48 71 108 110 87 86 96 98 82 62
325 326 332 332 331 331 331 334 334 331 331 325 323 314 305 35 71 126 280 296 244 195 187 150 218 258 354 12 53 37 65 91 312 165 232 96 314 216 239 179 161 168 143 140 86 86 92 99 106 99 97 86 102 313
322 327 327 332 330 330 334 335 335 333 336 335 348 351 357 346 317 298 81 37 30 344 55 218 175 263 89 14 350 95 24 155 160 252 105 76 240 266 251 179 158 142 130 130 110 99 100 102 124 123 124 171 208 267
323 325 329 328 331 329 332 333 334 337 350 9 10 337 310 327 95 32 254 149 175 264 189 237 191 221 263 142 202 187 172 145 144 253 138 253 278 245 148 109 101 116 110 86 104 108 123 136 148 145 129 57 10 139
318 321 323 323 330 332 335 342 341 344 343 320 297 305 307 344 38 137 239 309 204 235 199 186 226 201 273 110 112 215 143 77 217 153 95 197 242 175 134 122 115 114 109 98 107 113 116 120 134 140 159 174 188 336
320 319 317 323 328 334 349 353 352 337 328 343 264 298 15 314 61 198 211 254 279 243 235 240 279 205 346 85 80 113 143 206 106 75 212 223 173 143 135 122 102 100 109 107 101 108 118 117 114 115 193 257 320 83
318 324 325 327 332 342 335 338 339 338 320 352 6 319 177 228 246 200 189 211 264 264 296 243 253 180 202 128 145 139 194 122 87 138 232 203 186 154 146 140 126 132 122 121 122 121 121 125 97 52 22 61 127 117
319 325 326 331 337 328 326 322 325 318 307 277 71 238 233 266 275 263 257 305 277 294 345 308 288 141 239 119 242 115 120 192 184 214 227 176 151 140 143 142 138 137 136 132 133 133 132 126 123 105 87 109 126 125
320 323 319 325 323 324 322 320 311 256 262 249 241 275 273 13 310 325 297 291 264 302 293 209 250 197 208 145 134 192 137 191 228 210 172 138 147 156 158 152 145 139 141 137 138 139 139 141 139 121 112 113 119 125
302 265 317 315 318 322 322 280 255 238 241 248 255 227 224 253 239 257 262 265 305 337 297 288 228 215 98 92 166 186 184 204 183 141 147 156 158 157 158 135 139 139 138 143 140 142 136 138 139 137 125 120 117 130
262 299 311 319 329 338 306 233 238 254 253 247 237 272 220 229 267 281 260 267 360 315 319 247 306 360 211 153 235 225 182 83 89 142 147 138 143 153 156 147 152 155 154 153 149 146 146 144 140 144 139 128 123 124
279 292 302 310 324 313 290 243 202 266 243 250 266 247 235 261 258 246 266 273 226 227 241 312 222 205 248 238 224 194 193 174 153 135 126 151 162 154 155 156 155 154 155 155 156 161 164 163 154 152 153 156 155 171
280 287 294 280 247 257 270 265 231 240 264 261 280 276 241 240 275 286 288 279 311 278 271 218 223 225 199 222 229 256 148 164 138 131 130 154 170 162 164 162 165 165 157 156 155 154 157 169 181 184 195 203 197 206
300 314 298 217 198 228 271 293 267 254 311 285 268 286 271 302 271 272 277 254 59 229 232 216 231 268 266 243 219 113 109 197 159 154 163 169 182 176 172 176 167 166 164 167 167 182 190 198 188 217 238 237 239 241
276 303 244 186 229 222 249 224 225 280 284 257 309 229 269 275 253 235 183 356 235 237 202 195 226 224 250 131 143 121 112 83 81 109 121 129 142 154 175 171 156 172 186 188 187 193 206 211 206 209 225 220 232 246
292 300 273 203 253 264 265 171 253 241 249 268 330 276 250 243 232 13 229 217 255 310 298 272 278 301 246 290 129 131 141 116 65 266 163 184 186 176 173 180 184 176 190 208 207 210 217 209 213 229 237 221 227 221
302 276 269 248 199 263 269 252 209 258 266 273 248 268 248 238 273 99 240 298 321 320 356 340 304 77 26 66 211 245 209 177 180 217 188 163 151 194 200 201 199 205 206 207 201 203 204 205 210 217 227 230 214 196
257 253 124 278 245 259 261 254 221 225 239 237 249 277 266 324 202 201 49 352 345 352 344 338 332 258 205 231 265 199 195 187 168 185 191 193 188 144 128 150 185 220 215 187 177 184 203 231 236 230 229 216 194 176
232 214 192 252 251 212 234 252 252 336 42 317 283 298 323 312 250 83 216 319 324 326 339 334 325 319 281 226 176 174 203 193 179 142 193 195 197 169 140 133 118 86 151 150 131 110 84 52 9 53 54 86 164 146
292 278 239 225 253 285 275 254 234 241 230 250 309 314 316 297 44 278 291 340 314 318 314 310 312 327 314 303 202 144 157 149 159 158 156 168 173 170 154 132 118 120 118 114 111 104 102 109 105 141 168 144 144 138
242 250 235 260 243 228 263 271 213 221 270 270 281 267 340 350 307 317 290 304 312 309 301 312 305 292 40 81 103 113 113 119 117 110 110 112 116 127 129 122 120 128 127 121 143 144 167 189 177 150 143 138 148 158
256 238 242 275 250 238 228 261 320 13 327 268 302 316 309 287 322 274 290 298 294 127 67 48 48 108 101 106 107 104 115 121 116 112 104 116 118 118 139 138 140 140 141 145 137 147 154 148 153 154 153 151 147 144
260 157 259 263 256 275 266 198 191 206 237 272 299 299 309 312 303 355 39 36 37 52 58 52 64 82 62 87 85 67 48 69 156 151 142 150 155 158 163 163 162 163 160 143 108 140 140 139 138 134 135 132 120 102
321 360 308 259 261 255 260 306 155 175 244 284 250 280 312 318 34 27 30 32 43 66 51 41 43 51 56 48 71 92 80 90 117 132 136 143 148 155 162 166 169 169 168 191 160 151 141 137 128 117 107 101 99 87
321 255 266 291 291 292 318 35 119 56 27 358 321 3 26 40 70 16 28 33 31 26 73 82 74 57 88 102 102 95 96 102 113 125 124 130 135 143 156 163 163 165 153 140 145 141 137 127 121 115 106 99 87 69
290 282 245 276 288 301 339 354 40 81 47 301 293 338 42 44 63 348 23 33 48 71 87 90 92 94 89 86 86 86 85 87 91 101 122 142 151 153 156 151 142 138 133 129 131 129 122 114 111 108 107 103 96 81